Weather History for Windsor Locks, CT

Change the Weather History Date:

Sunday, January 5, 2014

  Actual Average Record
Temperature  
Mean Temperature 18 °F 26 °F  
Max Temperature 32 °F 35 °F 63 °F (1993)
Min Temperature 4 °F 18 °F -10 °F (1981)
Degree Days  
Heating Degree Days 47 39  
Month to date heating degree days 256 192  
Since 1 July heating degree days 2552 2436  
Cooling Degree Days 0 0  
Month to date cooling degree days 0 0  
Year to date cooling degree days 0 0  
Moisture  
Dew Point 20 °F    
Average Humidity 78    
Maximum Humidity 100    
Minimum Humidity 56    
Precipitation  
Precipitation 0.06 in 0.10 in 1.02 in (1909)
Month to date precipitation 0.42 0.50  
Year to date precipitation 0.42 0.50  
Snow  
Snow 0.00 in 0.40 in 4.90 in (1952)
Month to date snowfall 7.2 1.9  
Since 1 July snowfall 19.9 11.3  
Snow Depth 6.00 in    
Sea Level Pressure  
Sea Level Pressure 30.18 in    
Wind  
Wind Speed 3 mph (NNE)    
Max Wind Speed 12 mph    
Max Gust Speed 14 mph    
Visibility 5 miles    
Events Fog , Rain    
T = Trace of Precipitation, MM = Missing Value Source: NWS Daily Summary

Daily Weather History Graph

Daily Weather History Graph

Search for Another Location

Airport:

Trip Planner

Search our weather history database for the weather conditions in past years. The results will help you decide how hot, cold, wet, or windy it might be!

Date:

Astronomy

Jan. 05, 2014 Rise Set
Actual Time 7:18 AM EST 4:33 PM EST
Civil Twilight 6:47 AM EST 5:05 PM EST
Nautical Twilight 6:12 AM EST 5:40 PM EST
Astronomical Twilight 5:38 AM EST 6:13 PM EST
Moon 9:53 AM EST (1/5) 10:04 PM EST (1/5)
Length of Visible Light 10h 18m
Length of Day
9h 15m
Waxing Crescent, 24% of the Moon is Illuminated
Jan 5
Waxing Crescent
Jan 7
First Quarter
Jan 15
Full
Jan 24
Last Quarter
Jan 30
New

Hourly Weather History & Observations

Time (EST) Temp. Windchill Dew Point Humidity Pressure Visibility Wind Dir Wind Speed Gust Speed Precip Events Conditions
12:51 AM 18.0 °F 9.8 °F 7.0 °F 62% 30.29 in 10.0 mi SSE 5.8 mph - N/A   Partly Cloudy
1:51 AM 14.0 °F 5.1 °F 6.1 °F 71% 30.27 in 10.0 mi South 5.8 mph - N/A   Partly Cloudy
2:51 AM 16.0 °F 3.6 °F 7.0 °F 68% 30.27 in 10.0 mi South 10.4 mph - N/A   Scattered Clouds
3:51 AM 16.0 °F 7.4 °F 9.0 °F 74% 30.26 in 10.0 mi SSW 5.8 mph - N/A   Scattered Clouds
4:51 AM 17.1 °F 10.0 °F 9.0 °F 71% 30.27 in 10.0 mi South 4.6 mph - N/A   Scattered Clouds
5:51 AM 16.0 °F 8.8 °F 9.0 °F 74% 30.29 in 10.0 mi SSE 4.6 mph - N/A   Partly Cloudy
6:51 AM 12.0 °F - 7.0 °F 80% 30.31 in 10.0 mi Calm Calm - N/A   Partly Cloudy
7:51 AM 3.9 °F - -0.0 °F 84% 30.31 in 9.0 mi Calm Calm - N/A   Scattered Clouds
8:51 AM 14.0 °F - 7.0 °F 74% 30.33 in 9.0 mi Calm Calm - N/A   Scattered Clouds
9:51 AM 19.9 °F - 10.0 °F 65% 30.34 in 10.0 mi Calm Calm - N/A   Scattered Clouds
10:51 AM 21.9 °F - 12.0 °F 66% 30.32 in 10.0 mi Calm Calm - N/A   Mostly Cloudy
11:51 AM 26.1 °F - 14.0 °F 60% 30.29 in 10.0 mi Calm Calm - N/A   Mostly Cloudy
12:51 PM 28.0 °F - 16.0 °F 61% 30.25 in 10.0 mi Calm Calm - N/A   Overcast
1:51 PM 30.9 °F - 17.1 °F 57% 30.23 in 10.0 mi Calm Calm - N/A   Overcast
2:51 PM 30.9 °F - 18.0 °F 59% 30.22 in 10.0 mi Calm Calm - N/A   Overcast
3:28 PM 32.0 °F - 19.4 °F 60% 30.21 in 8.0 mi Calm Calm - N/A   Overcast
3:48 PM 30.2 °F - 26.6 °F 86% 30.21 in 2.0 mi Calm Calm - 0.00 in   Light Freezing Rain
3:51 PM 30.0 °F - 27.0 °F 88% 30.22 in 2.0 mi Calm Calm - 0.00 in   Light Freezing Drizzle
3:53 PM 30.2 °F - 26.6 °F 86% 30.21 in 1.8 mi Calm Calm - 0.00 in   Light Freezing Drizzle
4:22 PM 30.2 °F - 26.6 °F 86% 30.19 in 2.5 mi Calm Calm - 0.00 in   Light Freezing Drizzle
4:33 PM 30.2 °F - 26.6 °F 86% 30.19 in 3.0 mi Calm Calm - 0.00 in   Light Freezing Drizzle
4:51 PM 30.0 °F - 27.0 °F 88% 30.20 in 3.0 mi Calm Calm - 0.00 in   Overcast
5:32 PM 30.2 °F - 26.6 °F 86% 30.18 in 2.0 mi Calm Calm - N/A   Overcast
5:51 PM 28.9 °F 25.2 °F 27.0 °F 92% 30.18 in 2.0 mi NNE 3.5 mph - N/A   Overcast
6:27 PM 28.4 °F 22.2 °F 26.6 °F 93% 30.15 in 1.5 mi NNE 5.8 mph - N/A   Overcast
6:51 PM 28.9 °F 23.9 °F 27.0 °F 92% 30.15 in 1.0 mi North 4.6 mph - N/A   Overcast
7:20 PM 28.4 °F 19.7 °F 26.6 °F 93% 30.12 in 1.0 mi NNE 9.2 mph - N/A   Overcast
7:51 PM 28.0 °F 20.0 °F 27.0 °F 96% 30.11 in 1.0 mi North 8.1 mph - N/A   Overcast
8:51 PM 28.0 °F 22.8 °F 27.0 °F 96% 30.07 in 0.8 mi NNW 4.6 mph - N/A   Overcast
9:15 PM 28.4 °F 22.2 °F 28.4 °F 100% 30.04 in 0.1 mi North 5.8 mph - N/A Fog Light Freezing Fog
9:51 PM 28.9 °F 22.8 °F 28.0 °F 96% 30.00 in 0.1 mi NNE 5.8 mph - N/A Fog Light Freezing Fog
10:01 PM 28.4 °F 22.2 °F 28.4 °F 100% 29.99 in 0.5 mi North 5.8 mph - 0.00 in Fog , Rain Light Freezing Rain
10:13 PM 30.2 °F 23.4 °F 28.4 °F 93% 29.97 in 0.5 mi North 6.9 mph - 0.01 in   Overcast
10:27 PM 30.2 °F 25.4 °F 28.4 °F 93% 29.95 in 0.5 mi North 4.6 mph - 0.02 in Rain Light Freezing Rain
10:51 PM 30.9 °F - 30.0 °F 96% 29.94 in 0.5 mi Calm Calm - 0.04 in Rain Light Freezing Rain
10:58 PM 30.2 °F 26.7 °F 30.2 °F 100% 29.92 in 0.5 mi NNW 3.5 mph - 0.01 in Rain Light Freezing Rain
11:51 PM 32.0 °F - 30.9 °F 96% 29.86 in 0.5 mi Calm Calm - 0.02 in Rain Light Freezing Rain